星链-11246 (STARLINK-11246)

导读

STARLINK-11246是美国太空探索技术公司SpaceX星链星座的卫星,于北京时间2024年8月31日8时发射入轨,属于星链低轨互联网卫星星座组网卫星,将为全球提供高速低延迟卫星互联网服务,进一步扩充星链星座规模,增强星座覆盖能力和服务容量,支撑星链商用、民用及军事领域服务拓展。

Basic Information
目录编号:
60932
目录名称:
STARLINK-11246
国际标识:
2024-155J
轨道中心:
EARTH
卫星名称:
星链-11246
卫星全名:
星链-11246 (STARLINK-11246)
卫星状态:
在轨 (已飞行696 天)
发射日期:
2024-08-31 UTC
国别 :
美国 (US)
星等 :
--
Orbit Information
数据来源 国际轨道数据 AOE轨道数据
星历时间 2026-07-27T19:56:38+0800
12小时前
查看轨道信息
2026-07-23T02:00:00+0800
5天前
查看轨道信息
半长轴 6737.865km 6737.81km
偏心率 0.000071 0.000007
轨道倾角 53.157° 53.161°
近地点辐角 83.030° 173.101°
升交点赤经 11.841° 35.245°
平近点角 277.079° 342.780°
近地点 359.249km 359.625km
远地点 360.207km 359.721km
周期 91.737分钟 91.736分钟
每日圈数 15.697099 15.697288
Detailed Information
固有亮度:
5
最大亮度:
2.5
卫星平台:
Starlink V1.0
覆盖范围:
全球
运营商:
太空探索技术公司
运营商所在国:
美国
制造商(研发单位):
太空探索技术公司
制造商所在国:
美国
使用方式:
暂无
Satellite Introduction
Starlink 计划是 SpaceX 推出的全球卫星互联网项目,通过发射低轨道卫星,为全球尤其是偏远地区提供高速、低延迟的互联网服务。自 2019 年起,Starlink 已部署数千颗卫星,旨在缩小全球数字鸿沟,推动互联网普及。该项目还为军事、航空等行业提供通信支持,带来广泛经济效益。
2D Orbit Map
3D Orbit Map
Orbit Altitude Analysis Chart
Orbit Inclination Analysis Chart
Orbit Comprehensive Analysis Chart
View Comprehensive Chart